Presure
131 97 125 115 137 118 131 120 135 114 124 104 106 117 127 124 129 130 119 150 132 154 163 186 188 170 224 152 177 181 130 139 155 140 155 151 150 195 217 204 211 217 144 212 202
130 142 104 128 125 128 114 142 140 103 134 118 102 111 127 142 124 122 129 127 133 144 149 158 158 198 166 201 267 194 212 157 128 133 138 133 142 147 135 109 111 162 111 136 132
127 127 141 122 128 120 117 136 138 130 132 88 119 105 103 117 114 125 113 132 140 134 142 149 152 132 142 165 241 260 229 210 204 183 148 134 106 110 108 111 127 110 146 120 124
124 133 124 144 128 113 117 126 107 102 101 119 100 102 100 108 115 118 128 111 121 115 134 145 140 144 150 195 264 254 159 221 212 200 187 175 133 116 141 131 175 165 128 156 134
109 119 134 117 141 121 122 131 130 97 136 98 124 114 110 126 99 113 122 121 124 109 135 125 131 126 140 170 169 195 188 245 217 203 190 182 182 179 175 150 130 145 156 158 157
139 117 121 121 131 120 138 142 143 115 102 137 119 98 127 99 108 99 115 124 125 118 110 111 117 134 134 126 143 183 202 209 144 173 221 207 197 190 183 177 173 164 176 142 154
138 119 119 126 109 139 128 105 138 123 111 95 143 121 125 98 90 99 129 120 123 134 125 112 125 108 145 131 128 138 159 184 175 187 230 244 249 254 255 193 189 229 227 225 224
132 133 123 117 121 119 138 114 136 124 135 133 104 130 127 135 98 101 97 108 95 135 128 107 118 116 124 111 126 128 137 142 178 171 171 155 167 175 173 182 182 180 184 185 183
139 124 134 126 128 109 130 136 132 112 123 130 111 114 142 130 115 122 120 113 101 126 120 110 108 110 123 119 129 131 121 131 136 187 178 172 166 156 170 158 173 169 166 168 169
158 150 136 135 132 113 109 135 136 133 121 137 130 96 132 124 126 130 126 118 109 123 106 136 107 121 111 147 118 136 132 126 121 131 130 189 181 171 160 152 163 167 164 161 161
182 125 156 128 134 137 122 118 132 143 133 134 138 123 94 133 133 123 115 148 96 97 95 99 110 116 133 119 135 134 121 123 123 122 125 129 143 133 189 161 181 179 176 172 149
127 174 194 157 132 139 144 132 133 130 138 145 143 119 136 116 125 121 107 126 115 89 138 100 110 121 119 117 128 121 133 138 120 115 120 131 136 131 160 131 154 177 179 182 174
115 109 151 169 189 108 120 141 134 129 126 139 140 133 142 123 147 136 141 147 110 137 95 109 115 125 126 121 121 127 129 108 113 124 118 130 134 142 130 134 120 131 143 167 174
259 203 215 133 161 148 136 140 140 126 144 127 125 131 139 137 149 138 118 131 146 100 112 97 98 116 109 145 135 129 123 130 104 104 116 137 140 132 147 123 132 122 116 131 133
142 251 115 116 123 127 167 149 112 118 125 145 130 125 137 119 147 146 139 108 141 144 152 142 141 100 138 111 131 133 130 131 120 139 122 113 117 109 126 136 137 122 122 124 135
242 219 126 120 109 115 118 129 139 142 149 155 126 127 137 130 145 140 149 144 122 140 140 127 126 148 126 115 120 145 147 138 122 152 127 119 135 140 100 140 126 123 115 134 117
246 268 254 259 225 227 116 114 136 139 147 129 122 157 131 149 124 141 150 143 140 128 145 145 112 148 163 155 123 134 137 135 152 117 119 120 110 133 87 106 105 148 132 122 124
246 245 247 252 136 127 277 117 112 160 147 153 128 130 124 134 128 161 131 151 132 146 147 139 156 150 154 130 150 162 144 144 155 148 134 141 117 115 136 113 127 119 118 114 135
239 246 227 254 251 258 288 299 305 125 123 156 153 142 161 145 137 127 148 152 137 142 131 153 151 137 146 110 123 115 107 147 123 113 137 139 138 146 109 115 143 117 110 110 122
190 236 242 253 245 276 267 314 336 118 117 114 133 151 153 124 135 168 159 134 124 144 151 139 151 137 153 131 147 155 137 140 111 127 127 139 136 147 150 118 145 149 133 140 102
254 249 246 242 245 246 278 289 105 132 135 130 119 113 155 142 156 121 162 128 161 124 157 145 143 135 148 144 154 146 139 137 144 119 126 129 148 129 140 129 127 130 155 117 143
217 243 251 231 263 255 279 258 169 350 141 123 130 125 120 161 150 146 123 150 132 132 130 130 117 132 146 153 145 109 117 136 134 125 141 143 126 153 111 130 152 133 138 140 163
224 240 239 228 262 243 253 262 269 352 329 290 121 125 132 131 135 159 144 125 116 142 149 152 132 137 132 139 144 159 154 129 127 125 152 133 141 132 139 122 137 129 128 148 128
235 222 233 246 250 255 260 263 259 338 337 200 251 191 138 90 137 162 145 141 110 122 123 153 141 150 152 149 151 131 130 127 141 144 147 136 139 134 126 146 124 128 143 104 131
243 242 243 215 241 235 257 231 262 309 341 290 268 236 218 141 135 134 134 131 123 124 147 120 124 125 117 118 122 137 147 149 138 125 146 151 146 140 115 134 133 101 121 181 179
232 231 254 257 229 239 254 251 228 287 331 289 275 251 231 87 143 136 139 129 129 133 132 132 116 134 154 128 131 138 138 137 145 146 126 150 81 160 140 140 138 147 151 120 180
250 253 254 239 267 246 236 238 251 258 318 317 278 261 239 221 213 216 143 135 141 140 142 144 127 133 131 135 139 134 136 142 148 149 152 136 156 125 130 154 154 133 195 190 132
Wind_Speed
14 10 9 11 12 7 1 7 6 3 6 10 14 16 17 20 24 23 18 25 22 28 26 26 24 18 20 4 2 3 6 6 5 4 7 6 4 15 14 13 13 16 6 21 27
17 27 12 11 8 9 8 15 9 7 6 4 7 10 15 16 17 24 19 17 19 25 25 25 22 28 16 22 4 2 10 3 6 3 4 5 1 6 3 11 10 5 7 11 10
19 17 30 15 11 14 13 18 14 4 3 14 6 9 9 13 15 17 15 19 21 20 24 22 22 10 13 16 12 10 12 12 13 15 11 2 12 14 12 11 8 11 7 3 7
23 26 19 31 15 20 15 10 12 11 10 16 10 4 3 8 11 15 14 12 11 13 19 20 19 19 17 29 15 10 8 12 13 10 11 11 9 10 12 10 9 8 7 12 16
25 27 29 24 31 22 18 19 16 15 12 15 13 11 9 1 3 10 13 12 12 8 15 15 14 11 19 25 27 21 20 12 12 8 8 8 8 9 10 12 13 16 14 11 12
43 32 29 28 28 25 29 31 25 24 19 17 20 10 10 4 7 3 9 10 10 11 11 7 10 14 14 13 15 20 18 14 8 6 10 11 11 8 3 2 3 8 9 20 16
44 38 36 35 27 36 30 21 28 27 26 19 24 22 18 10 8 4 6 7 8 6 8 12 9 2 15 11 6 17 22 23 21 19 11 9 8 5 8 11 12 6 7 6 5
47 46 42 39 38 33 38 26 31 31 28 25 24 22 24 20 11 11 6 6 4 5 7 7 6 6 6 1 7 12 17 21 14 12 13 15 15 15 13 13 13 12 12 11 7
54 48 49 47 45 31 39 38 33 28 32 33 31 29 27 24 25 22 16 13 6 8 6 6 2 3 4 3 8 11 10 14 14 13 10 11 15 19 10 13 7 7 6 5 4
70 64 54 53 51 40 31 41 40 40 40 41 35 28 32 35 28 26 25 22 14 12 7 4 9 5 2 10 2 9 9 8 8 11 11 11 9 9 12 17 12 5 4 5 5
89 48 67 50 55 54 46 40 45 51 48 40 42 42 25 31 32 35 28 28 11 9 4 4 8 8 3 6 3 6 3 5 8 9 12 13 16 14 7 9 6 4 2 1 7
51 80 90 71 54 55 56 53 51 47 51 51 51 42 41 37 32 36 30 26 24 10 23 10 11 11 9 9 12 8 4 5 2 4 6 7 8 9 12 13 10 10 8 6 6
51 43 66 79 90 32 47 61 50 51 55 53 52 47 53 43 44 41 38 36 28 27 15 20 20 21 14 10 11 15 11 7 6 4 2 4 4 6 4 6 4 9 13 11 11
60 76 82 57 69 66 64 62 53 53 69 48 53 48 49 45 51 43 39 39 31 19 29 17 14 22 15 17 16 14 16 15 10 9 9 6 4 2 7 3 1 3 3 6 10
60 56 53 52 54 52 76 66 47 55 64 60 58 50 54 51 55 52 45 39 41 33 38 28 33 16 25 18 20 20 19 14 15 6 17 11 11 7 9 3 2 6 6 6 5
55 60 64 55 51 56 53 51 59 68 80 75 59 53 58 55 56 49 51 46 45 34 40 37 29 31 31 27 22 21 22 19 17 17 15 14 13 11 5 10 9 12 11 4 11
63 58 62 58 55 58 57 54 66 76 80 59 51 73 54 63 42 51 54 51 45 48 49 39 34 35 38 34 28 22 23 26 24 21 20 19 13 17 9 12 10 21 12 12 10
68 63 63 59 68 68 49 59 63 91 82 82 61 59 53 59 49 65 48 54 48 50 51 41 48 47 38 38 33 31 23 27 22 19 22 23 20 18 19 22 21 22 21 15 16
65 64 57 62 51 48 49 41 46 89 67 85 74 64 76 65 59 47 55 60 51 50 48 53 51 46 34 28 29 26 23 27 23 21 23 18 24 23 20 21 20 24 26 19 21
77 67 64 66 53 56 49 41 37 62 50 37 62 72 72 56 58 75 67 58 50 57 61 50 53 42 46 42 33 39 31 29 27 32 28 26 29 27 30 28 30 25 28 33 18
61 66 69 67 61 44 54 44 53 86 72 67 57 48 81 66 71 50 68 53 69 49 67 57 48 45 45 45 47 43 37 36 31 37 38 33 28 35 31 37 35 32 40 31 39
66 58 66 62 61 58 52 44 22 46 80 65 68 66 58 86 73 62 54 66 60 56 53 51 36 41 47 47 42 38 43 44 43 41 38 35 37 40 29 31 41 37 34 33 47
73 66 67 60 58 51 53 53 47 42 65 82 61 68 77 67 61 74 66 60 37 58 62 68 51 53 43 42 48 56 54 48 45 45 44 42 35 42 36 41 38 35 38 47 36
64 74 66 59 61 55 54 50 47 44 57 45 93 94 80 35 67 83 73 67 42 50 53 68 56 57 53 57 56 47 45 47 46 44 47 47 42 44 39 39 31 35 43 28 39
64 65 70 61 65 51 56 47 47 44 54 80 90 104 100 81 71 69 68 66 60 55 68 39 50 47 45 46 45 50 52 51 50 51 51 51 44 44 36 42 44 13 41 61 65
65 65 67 66 69 59 60 55 59 49 54 83 89 99 102 27 58 76 73 66 68 69 65 60 48 55 66 53 52 52 54 55 56 56 43 61 16 62 36 40 45 47 54 29 64
75 76 72 70 70 66 59 58 56 53 56 68 83 95 102 101 96 93 80 77 75 75 75 71 55 61 60 62 63 55 58 59 67 66 66 47 65 30 43 53 47 48 54 60 40
Wind_Direction
280 209 211 196 284 241 333 156 7 59 34 103 90 88 71 69 73 73 82 56 78 56 55 52 57 59 47 104 108 194 103 269 228 277 232 244 238 233 220 221 242 250 185 247 251
273 272 212 254 229 249 194 298 298 184 35 110 103 81 75 39 76 94 74 63 70 69 60 55 58 47 60 54 137 121 235 181 126 240 244 148 299 279 202 173 161 202 157 276 276
257 256 267 253 238 194 207 290 285 196 158 139 132 120 105 101 112 88 104 62 58 75 74 60 60 84 65 58 69 132 206 221 206 209 254 229 175 175 178 188 207 167 261 298 312
246 261 248 263 241 218 208 236 220 232 186 184 156 191 115 116 109 115 86 116 76 89 69 63 69 62 57 42 42 99 67 219 207 175 185 205 210 203 238 224 218 220 274 231 289
248 254 254 223 265 221 217 247 226 215 236 186 191 209 199 230 120 119 116 115 93 115 78 77 78 93 59 45 47 24 45 210 236 226 197 210 222 207 200 256 277 249 244 249 249
255 242 252 232 252 222 261 260 246 215 227 256 203 208 205 221 182 173 134 123 117 133 139 127 89 63 73 83 52 31 52 75 67 107 231 234 241 247 261 229 248 266 299 251 270
245 243 238 244 240 255 250 230 250 212 223 229 262 206 201 239 152 235 167 156 140 94 129 136 88 117 42 70 67 47 35 39 43 58 78 97 94 127 138 271 279 79 70 69 74
239 236 238 241 234 235 250 243 249 214 250 239 225 216 230 252 236 232 241 199 137 127 151 172 142 113 68 95 62 54 37 38 49 40 48 43 55 63 69 79 74 62 62 77 77
240 245 236 237 237 242 238 244 233 229 223 233 227 222 255 244 222 217 226 229 230 195 200 175 207 205 95 63 41 39 60 43 46 58 59 46 35 35 53 40 78 81 73 47 22
247 245 238 235 233 243 245 236 241 243 234 244 227 225 253 217 235 237 213 212 225 205 209 225 206 225 176 30 353 49 44 36 59 37 45 77 78 54 26 27 8 44 38 353 339
257 243 246 243 238 233 239 237 234 240 239 234 237 216 225 237 238 214 232 256 240 237 256 266 217 224 188 197 31 81 355 16 7 26 27 23 33 31 84 61 126 119 104 183 9
248 254 255 247 242 238 232 237 235 233 238 242 245 224 242 225 230 218 233 227 214 189 256 254 227 217 244 220 188 192 85 73 358 347 12 24 37 25 42 39 38 46 50 50 39
246 246 247 248 251 240 243 235 234 236 240 232 238 227 239 221 251 245 246 260 232 233 237 241 238 217 228 245 224 200 190 259 288 318 330 356 21 38 24 55 43 29 36 42 30
267 252 250 242 246 240 239 239 236 238 237 224 234 229 237 234 245 234 226 218 256 224 229 248 250 241 247 255 232 226 218 205 260 275 284 336 346 294 17 356 296 341 332 20 25
251 267 249 246 240 237 242 237 248 243 246 233 236 228 233 225 240 234 237 225 244 244 258 223 244 251 236 245 237 220 224 233 238 240 227 263 260 292 243 277 182 290 290 311 359
276 264 243 240 245 247 241 237 237 239 237 232 233 234 229 231 234 229 240 243 227 231 244 229 239 249 226 245 236 250 254 251 242 284 259 249 231 279 250 281 267 254 288 320 311
282 278 273 266 258 258 242 241 235 238 237 238 242 234 235 235 230 231 236 238 236 225 250 245 232 252 259 256 233 245 247 234 260 249 253 262 262 246 190 267 259 326 263 278 299
279 281 274 271 242 238 257 239 242 240 235 235 240 236 243 234 237 236 229 238 232 244 247 229 249 248 250 233 246 259 243 242 257 254 235 257 275 260 243 283 256 290 294 302 281
278 274 271 275 270 267 273 264 250 242 242 233 235 237 235 236 237 237 235 235 233 238 229 250 250 235 232 232 247 249 243 250 236 244 247 252 259 279 269 267 262 278 292 301 276
252 274 272 273 269 275 265 271 249 246 242 237 238 237 237 240 237 231 235 230 234 238 241 236 245 229 246 231 241 256 248 248 254 250 250 251 254 280 283 270 293 292 280 288 311
276 271 271 272 273 269 272 267 229 243 238 235 240 244 237 235 236 238 236 237 236 239 238 238 236 228 242 246 249 245 233 236 238 254 250 258 278 259 264 260 265 265 286 283 305
276 280 273 269 270 272 266 260 169 233 233 238 236 240 245 236 235 228 239 237 236 236 242 242 233 233 237 245 245 247 246 238 231 249 244 256 256 276 266 277 288 267 268 268 297
269 273 268 270 268 263 261 262 252 232 220 220 234 239 238 239 235 235 234 240 239 235 240 244 242 241 239 237 246 256 253 248 248 248 264 241 250 244 264 274 279 275 278 294 275
271 264 264 266 264 259 258 255 250 232 218 223 222 227 237 234 234 232 235 233 240 241 242 242 242 247 247 248 251 245 242 247 252 255 251 252 253 251 251 269 275 287 279 273 280
269 267 261 258 259 255 255 244 251 234 218 215 216 222 225 236 237 237 234 236 244 242 242 241 242 245 243 245 246 245 255 260 253 253 261 259 255 254 252 256 263 247 265 280 279
261 259 258 255 252 253 251 244 243 236 222 218 214 219 221 239 230 238 238 241 243 245 247 245 244 245 247 246 244 248 251 252 258 259 259 263 211 271 252 263 262 273 278 281 278
258 256 256 253 249 243 247 249 244 242 221 221 216 218 221 221 223 224 234 241 241 243 248 247 241 242 242 244 247 247 251 256 259 261 264 258 267 247 249 271 269 271 265 268 285